Date,TemperatureHighF,TemperatureAvgF,TemperatureLowF,DewpointHighF,DewpointAvgF,DewpointLowF,HumidityHigh,HumidityAvg,HumidityLow,PressureMaxIn,PressureMinIn,WindSpeedMaxMPH,WindSpeedAvgMPH,GustSpeedMaxMPH,PrecipitationSumIn
2013-10-1,77.2,62.5,54.3,62.0,57.8,54.0,98,86,56,30.18,30.07,9,2,15,0.00
2013-10-2,78.0,62.8,53.8,64.0,58.3,53.0,98,87,57,30.21,30.09,8,2,13,0.00
2013-10-3,79.8,65.0,56.3,66.0,60.3,56.0,98,86,55,30.17,30.06,5,1,10,0.00
2013-10-4,84.0,66.9,56.7,67.0,61.0,56.0,98,84,49,30.19,30.08,7,1,10,0.00
2013-10-5,82.8,67.2,58.1,66.0,61.6,58.0,98,84,51,30.18,30.02,11,2,13,0.00
2013-10-6,79.3,67.6,58.6,66.0,61.5,58.0,98,83,57,30.06,29.88,19,5,23,0.01
2013-10-7,67.1,58.5,51.1,64.0,54.9,50.0,97,88,68,30.07,29.80,17,6,24,1.16
2013-10-8,68.5,55.0,44.7,52.0,48.3,44.0,98,81,51,30.23,30.07,9,3,17,0.01
2013-10-9,73.4,56.4,44.5,57.0,50.0,44.0,98,82,51,30.27,30.12,7,1,13,0.00
2013-10-10,69.1,56.3,46.2,55.0,50.6,46.0,98,83,56,30.17,30.06,20,5,24,0.01
2013-10-11,72.0,58.7,47.3,59.0,53.2,47.0,98,84,56,30.11,30.00,13,4,21,0.00
2013-10-12,71.7,60.6,51.3,60.0,56.2,51.0,98,86,64,30.12,30.02,12,3,17,0.00
2013-10-13,71.5,63.8,58.3,63.0,60.4,58.0,97,89,73,30.21,30.13,13,2,18,0.08
2013-10-14,70.8,62.9,56.6,62.0,59.5,55.0,98,89,72,30.24,30.13,10,2,15,0.00
2013-10-15,68.6,60.0,53.0,59.0,56.2,52.0,97,88,71,30.19,30.05,10,2,15,0.00
2013-10-16,70.6,60.2,52.0,61.0,55.8,51.0,97,86,65,30.09,29.96,7,2,10,0.01
2013-10-17,75.0,62.5,54.9,65.0,59.6,52.0,97,90,71,29.99,29.82,17,4,20,0.02
2013-10-18,69.7,56.2,47.2,53.0,49.7,46.0,95,80,54,30.06,29.93,10,3,17,0.00
2013-10-19,61.7,55.1,49.3,55.0,50.5,47.0,96,85,62,29.99,29.87,15,4,19,0.00
2013-10-20,67.6,50.5,39.6,47.0,40.3,25.0,96,73,24,30.12,29.98,10,2,13,0.00
2013-10-21,67.6,51.8,37.5,53.0,45.9,37.0,97,83,51,30.19,30.02,11,3,16,0.01
2013-10-22,66.0,55.6,48.3,53.0,49.7,47.0,96,82,53,30.05,29.85,15,3,16,0.00
2013-10-23,52.8,45.7,38.4,47.0,38.3,30.0,96,77,55,30.11,29.79,27,8,35,0.01
2013-10-24,50.8,41.4,29.8,39.0,33.9,28.0,94,76,56,30.24,30.10,13,4,17,0.00
2013-10-25,43.6,36.8,29.3,37.0,28.5,26.0,92,73,52,30.44,30.25,24,7,28,0.00
2013-10-26,58.4,40.2,24.7,41.0,30.6,23.0,95,73,36,30.42,30.15,6,1,10,0.00
2013-10-27,64.6,54.4,47.3,50.0,44.3,39.0,92,69,56,30.17,30.07,11,4,22,0.00
2013-10-28,61.7,52.0,44.1,55.0,49.8,43.0,97,92,74,30.29,30.15,4,0,9,0.04
2013-10-29,71.4,56.9,46.8,56.0,50.2,46.0,98,81,45,30.38,30.25,6,1,9,0.00
2013-10-30,73.7,60.5,53.5,58.0,53.8,51.0,94,80,55,30.30,30.16,9,2,11,0.00
2013-10-31,64.9,60.7,53.1,61.0,55.7,52.0,97,84,70,30.18,29.76,28,8,34,0.00